Home   Weather   Kingston   Past weeks

Flag for Canada Past Weather in Kingston, Ontario, Canada — Yesterday and Last 2 Weeks

Now
54 °F

Passing clouds.


Feels Like: 53 °F
Forecast: 52 / 73 °F
Wind: 5 mph from Northeast

Location: Kingston

Current Time: Apr 27, 2017 at 7:07:19 am

Latest Report: Apr 27, 2017 at 6:00 am


Visibility: 15 mi

Pressure: 29.74 "Hg

Humidity: 94%

Dew Point: 52 °F

Location of KingstonLocation

Past Weather in Kingston — Graph

°F

Kingston Temperature Yesterday

Maximum temperature yesterday: 66 °F (at 5:00 pm)
Minimum temperature yesterday: 50 °F (at 6:00 am)
Average temperature yesterday: 59 °F

High & Low Weather Summary for the Past Weeks

 TemperatureHumidityPressure
High70 °F (Apr 16, 6:00 pm)100% (Apr 14, 6:00 am)30.49 "Hg (Apr 14, 6:00 am)
Low28 °F (Apr 18, 6:00 am)20% (Apr 12, 11:00 am)29.65 "Hg (Apr 16, 4:00 pm)
Average47 °F74%30.09 "Hg
* Reported Apr 12 6:00 am — Apr 27 6:00 am, Kingston, Weather by CustomWeather, © 2017

Note: Actual official high and low records may vary slightly from our data, if they occured in-between our weather recording intervals... More about our weather records

Advertising

Kingston Weather History for the Previous 24 Hours

Scroll right to see more
 ConditionsComfort  
Time TempWeatherWind HumidityBarometerVisibility
6:00 am
Thu, Apr 27
54 °FPassing clouds.5 mph94%29.74 "Hg15 mi
11:00 pm
Wed, Apr 26
61 °FPassing clouds.10 mph83%29.74 "Hg15 mi
10:00 pm59 °FPassing clouds.6 mph88%29.74 "Hg15 mi
9:00 pm63 °FPassing clouds.2 mph77%29.74 "Hg15 mi
8:00 pm63 °FScattered clouds.2 mph73%29.73 "Hg15 mi
7:00 pm66 °FScattered clouds.2 mph68%29.73 "Hg15 mi
6:00 pm66 °FPartly sunny.3 mph68%29.73 "Hg15 mi
5:00 pm66 °FPartly sunny.6 mph64%29.74 "Hg15 mi
4:00 pm64 °FScattered clouds.8 mph68%29.76 "Hg15 mi
3:00 pm64 °FPartly sunny.7 mph68%29.78 "Hg15 mi
2:00 pm63 °FPartly sunny.9 mph68%29.80 "Hg15 mi
1:00 pm63 °FBroken clouds.7 mph68%29.82 "Hg15 mi
12:00 pm59 °FMore clouds than sun.6 mph77%29.83 "Hg15 mi
11:00 am59 °FCloudy.5 mph77%29.85 "Hg15 mi
10:00 am57 °FOvercast.8 mph88%29.85 "Hg15 mi
9:00 am54 °FPartly sunny.8 mph88%29.85 "Hg15 mi
8:00 am52 °FLow clouds.9 mph94%29.86 "Hg15 mi
7:00 am50 °FLow clouds.9 mph94%29.86 "Hg15 mi
Weather by CustomWeather, © 2017

See weather overviewHow to use our weather pages